Flag for Russia Weather past 2 weeks in Syktyvkar, Russia

Now
36 °F

Snow flurries. Cloudy.


Feels Like: 26 °F
Forecast: 26 / 38 °F
Wind: 15 mph from North

Location: Syktyvkar Airport

Current Time: Apr 21, 2015 at 10:09:55 AM

Latest Report: Apr 21, 2015 at 9:30 AM


Visibility: 5 mi

Pressure: 29.36 "Hg

Humidity: 81%

Dew point: 30 °F

Location of SyktyvkarLocation

Historic Weather in Syktyvkar — Graph

°F

Syktyvkar temperature yesterday

Maximum temperature yesterday: 41 °F (at 4:30 PM)
Minimum temperature yesterday: 30 °F (at 3:00 AM)
Average temperature yesterday: 35 °F

Past Weeks' High & Low Weather Summary

 TemperatureHumidityPressure
High54 °F (Apr 13, 1:00 PM)100% (Apr 8, 5:30 AM)30.09 "Hg (Apr 8, 5:30 AM)
Low25 °F (Apr 15, 4:00 AM)28% (Apr 13, 1:00 PM)29.27 "Hg (Apr 17, 5:30 PM)
Average37 °F78%29.59 "Hg
* Reported Apr 6 9:00 AM — Apr 21 9:00 AM, Syktyvkar, Weather by CustomWeather, © 2015

Note: Actual official high and low records may vary slightly from our data, if they occured in-between our weather recording intervals... More about our weather records

Advertising

Syktyvkar weather history for previous 24 hours

 ConditionsComfort  
Time TempWeatherWind HumidityBarometerVisibility
9:00 AM
Tue, Apr 21
34 °FSnow showers. Cloudy.10 mph87%29.33 "Hg1 mi
8:30 AM34 °FHeavy snow. Dense fog.13 mph87%29.33 "Hg0 mi
8:00 AM34 °FHeavy snow. Dense fog.13 mph87%29.33 "Hg1 mi
7:30 AM34 °FHeavy snow. Dense fog.13 mph87%29.33 "Hg0 mi
7:00 AM34 °FHeavy snow. Dense fog.13 mph87%29.33 "Hg0 mi
6:00 AM36 °FSunny.13 mph65%29.33 "Hg10 mi
5:30 AM36 °FSunny.13 mph65%29.33 "Hg10 mi
5:00 AM36 °FSunny.10 mph65%29.33 "Hg10 mi
4:30 AM36 °FClear.10 mph65%29.36 "Hg10 mi
4:00 AM36 °FClear.10 mph65%29.36 "Hg10 mi
3:30 AM36 °FClear.10 mph65%29.36 "Hg10 mi
3:00 AM36 °FClear.10 mph65%29.36 "Hg10 mi
2:30 AM36 °FClear.13 mph70%29.39 "Hg10 mi
2:00 AM36 °FClear.10 mph70%29.39 "Hg10 mi
1:30 AM36 °FClear.13 mph70%29.39 "Hg10 mi
1:00 AM36 °FClear.13 mph70%29.42 "Hg10 mi
12:00 AM36 °FClear.10 mph75%29.45 "Hg10 mi
11:30 PM
Mon, Apr 20
36 °FClear.10 mph75%29.45 "Hg10 mi
11:00 PM36 °FClear.8 mph70%29.47 "Hg10 mi
10:30 PM36 °FClear.8 mph70%29.47 "Hg10 mi
10:00 PM36 °FClear.8 mph70%29.47 "Hg10 mi
9:30 PM36 °FClear.8 mph70%29.50 "Hg10 mi
9:00 PM36 °FClear.8 mph70%29.50 "Hg10 mi
8:30 PM37 °FClear.6 mph65%29.50 "Hg10 mi
8:00 PM37 °FSunny.6 mph65%29.53 "Hg10 mi
7:30 PM37 °FSunny.6 mph65%29.53 "Hg10 mi
7:00 PM39 °FSunny.6 mph61%29.53 "Hg10 mi
6:30 PM39 °FSunny.6 mph61%29.56 "Hg10 mi
6:00 PM39 °FSunny.8 mph61%29.56 "Hg10 mi
5:30 PM41 °FSunny.8 mph57%29.56 "Hg10 mi
5:00 PM41 °FOvercast.10 mph57%29.59 "HgN/A
4:30 PM41 °FOvercast.8 mph57%29.59 "HgN/A
4:00 PM39 °FOvercast.6 mph61%29.59 "HgN/A
3:30 PM39 °FOvercast.6 mph61%29.62 "HgN/A
3:00 PM39 °FBroken clouds.6 mph65%29.62 "HgN/A
2:30 PM39 °FBroken clouds.6 mph65%29.65 "HgN/A
2:00 PM37 °FPartly sunny.8 mph70%29.65 "HgN/A
1:30 PM37 °FPartly sunny.8 mph65%29.65 "Hg6 mi
1:00 PM36 °FOvercast.6 mph70%29.65 "HgN/A
12:30 PM36 °FOvercast.3 mph75%29.65 "HgN/A
12:00 PM34 °FMostly cloudy.6 mph81%29.65 "HgN/A
11:30 AM34 °FMostly cloudy.3 mph75%29.65 "HgN/A
11:00 AM34 °FMostly cloudy.3 mph75%29.65 "HgN/A
10:30 AM34 °FMostly cloudy.3 mph75%29.65 "HgN/A
10:00 AM32 °FMostly cloudy.3 mph75%29.65 "HgN/A
Weather by CustomWeather, © 2015

See weather overviewHow to use our weather pages